Location: Eaton Estates
(41.3089°N, 82.0057°W)
Time: 13:41:23
(UTC+00:00)

BEESAT 2 - Visible Passes

Search period start: 01 April 2023 00:00
Search period end: 11 April 2023 00:00
Orbit: 445 x 481 km, 64.9° (Epoch: 30 March)

Date Brightness Start Highest point End Pass type
(mag) Time Alt. Az. Time Alt. Az. Time Alt. Az.
01 Apr ? 09:28:35 10° SE 09:30:18 13° ESE 09:32:01 10° E visible
02 Apr ? 10:30:01 10° SW 10:33:38 71° WNW 10:37:19 10° NNE visible
03 Apr ? 09:57:52 15° SSW 10:00:50 74° ESE 10:04:30 10° NE visible
04 Apr ? 09:26:24 27° S 09:27:59 46° ESE 09:31:31 10° NE visible
05 Apr ? 08:54:43 29° SE 08:55:04 30° ESE 08:58:17 10° NE visible
05 Apr ? 10:28:40 10° W 10:31:33 22° NW 10:34:29 10° N visible
06 Apr ? 08:22:50 19° E 08:22:50 19° E 08:24:47 10° ENE visible
06 Apr ? 09:56:42 21° W 09:58:21 31° NW 10:01:38 10° NNE visible
07 Apr ? 09:24:39 43° WNW 09:25:04 45° NW 09:28:37 10° NNE visible
08 Apr ? 08:52:26 54° N 08:52:26 54° N 08:55:25 10° NNE visible
09 Apr ? 08:20:03 30° NE 08:20:03 30° NE 08:22:01 10° NE visible
09 Apr ? 09:53:53 10° WNW 09:55:16 12° NW 09:56:46 10° NNW visible
10 Apr ? 07:47:31 16° NE 07:47:31 16° NE 07:48:25 10° NE visible
10 Apr ? 09:21:21 16° NW 09:21:35 16° NW 09:23:59 10° N visible
